TimeHST,TemperatureF,Dew PointF,Humidity,Sea Level PressureIn,VisibilityMPH,Wind Direction,Wind SpeedMPH,Gust SpeedMPH,PrecipitationIn,Events,Conditions,WindDirDegrees,DateUTC
12:00 AM,71.6,68.0,88,30.06,4.0,Calm,Calm,-,0.01,Rain,Light Rain,0,2011-11-17 10:00:00
12:09 AM,71.6,68.0,88,30.06,4.0,South,4.6,-,0.01,Rain,Light Rain,180,2011-11-17 10:09:00
12:49 AM,69.8,68.0,94,30.05,5.0,West,9.2,-,0.07,Rain,Light Rain,280,2011-11-17 10:49:00
12:53 AM,70.0,68.0,93,30.04,5.0,West,8.1,-,0.07,Rain,Light Rain,280,2011-11-17 10:53:00
1:38 AM,69.8,66.2,88,30.05,2.0,West,6.9,-,0.08,Rain,Heavy Rain,260,2011-11-17 11:38:00
1:53 AM,70.0,66.9,90,30.04,7.0,West,4.6,-,0.12,Rain,Light Rain,280,2011-11-17 11:53:00
2:09 AM,69.8,66.2,88,30.04,8.0,WSW,4.6,-,0.01,Rain,Light Rain,240,2011-11-17 12:09:00
2:18 AM,69.8,66.2,88,30.03,9.0,WSW,4.6,-,0.01,Rain,Light Rain,250,2011-11-17 12:18:00
2:28 AM,69.8,66.2,88,30.03,10.0,West,5.8,-,0.01,,Overcast,260,2011-11-17 12:28:00
2:53 AM,70.0,66.9,90,30.04,10.0,WSW,3.5,-,0.03,Rain,Light Rain,250,2011-11-17 12:53:00
3:19 AM,69.8,66.2,88,30.03,10.0,WSW,3.5,-,0.00,Rain,Light Rain,240,2011-11-17 13:19:00
3:37 AM,69.8,66.2,88,30.03,10.0,WSW,3.5,-,0.00,,Overcast,240,2011-11-17 13:37:00
3:53 AM,70.0,66.9,90,30.02,10.0,SW,4.6,-,0.00,,Overcast,230,2011-11-17 13:53:00
4:09 AM,69.8,66.2,88,30.03,10.0,SSW,3.5,-,N/A,,Overcast,210,2011-11-17 14:09:00
4:53 AM,70.0,66.9,90,30.04,7.0,SW,5.8,-,0.04,Rain,Light Rain,230,2011-11-17 14:53:00
5:38 AM,69.8,66.2,88,30.05,10.0,WSW,6.9,-,0.00,,Mostly Cloudy,240,2011-11-17 15:38:00
5:53 AM,71.1,66.0,84,30.05,10.0,WSW,6.9,-,0.00,,Mostly Cloudy,240,2011-11-17 15:53:00
6:13 AM,69.8,66.2,88,30.05,10.0,West,6.9,-,N/A,,Overcast,270,2011-11-17 16:13:00
6:53 AM,70.0,66.0,87,30.06,10.0,SSW,4.6,-,N/A,,Overcast,210,2011-11-17 16:53:00
7:53 AM,71.1,66.9,87,30.09,10.0,WSW,6.9,-,N/A,,Overcast,240,2011-11-17 17:53:00
8:53 AM,73.0,68.0,84,30.11,10.0,Calm,Calm,-,N/A,,Mostly Cloudy,0,2011-11-17 18:53:00
9:53 AM,77.0,69.1,76,30.11,10.0,Calm,Calm,-,N/A,,Mostly Cloudy,0,2011-11-17 19:53:00
10:53 AM,78.1,69.1,74,30.09,10.0,SSE,3.5,-,N/A,,Overcast,150,2011-11-17 20:53:00
11:53 AM,78.1,69.1,74,30.07,10.0,East,3.5,-,N/A,,Overcast,100,2011-11-17 21:53:00
12:53 PM,78.1,70.0,76,30.05,10.0,SE,8.1,-,0.00,,Overcast,140,2011-11-17 22:53:00
1:05 PM,78.8,69.8,74,30.05,10.0,East,9.2,-,N/A,,Mostly Cloudy,100,2011-11-17 23:05:00
1:22 PM,78.8,69.8,74,30.04,10.0,East,8.1,-,N/A,,Overcast,100,2011-11-17 23:22:00
1:53 PM,78.1,69.1,74,30.03,10.0,East,11.5,-,N/A,,Overcast,90,2011-11-17 23:53:00
2:53 PM,78.1,69.1,74,30.03,10.0,ESE,9.2,-,N/A,,Mostly Cloudy,120,2011-11-18 00:53:00
3:53 PM,78.1,69.1,74,30.04,10.0,East,6.9,-,N/A,,Mostly Cloudy,100,2011-11-18 01:53:00
4:53 PM,75.9,69.1,79,30.05,10.0,SE,4.6,-,N/A,,Mostly Cloudy,140,2011-11-18 02:53:00
5:53 PM,75.0,69.1,82,30.06,10.0,Calm,Calm,-,N/A,,Partly Cloudy,0,2011-11-18 03:53:00
6:53 PM,73.9,70.0,87,30.08,10.0,Calm,Calm,-,N/A,,Mostly Cloudy,0,2011-11-18 04:53:00
7:53 PM,73.0,70.0,90,30.10,10.0,Calm,Calm,-,N/A,,Overcast,0,2011-11-18 05:53:00
8:53 PM,73.0,70.0,90,30.12,10.0,WSW,4.6,-,0.00,,Overcast,240,2011-11-18 06:53:00
9:00 PM,73.4,69.8,88,30.12,10.0,WSW,3.5,-,N/A,,Mostly Cloudy,240,2011-11-18 07:00:00
9:28 PM,73.4,69.8,88,30.12,10.0,WSW,3.5,-,N/A,,Overcast,250,2011-11-18 07:28:00
9:53 PM,73.0,69.1,87,30.12,10.0,WSW,4.6,-,N/A,,Overcast,240,2011-11-18 07:53:00
10:11 PM,73.4,69.8,88,30.12,10.0,West,3.5,-,N/A,,Overcast,260,2011-11-18 08:11:00
10:53 PM,72.0,69.1,91,30.12,10.0,SW,5.8,-,0.00,,Overcast,230,2011-11-18 08:53:00
11:16 PM,71.6,69.8,94,30.11,10.0,SW,4.6,-,0.05,,Mostly Cloudy,230,2011-11-18 09:16:00
11:53 PM,73.0,68.0,84,30.11,10.0,WSW,4.6,-,0.05,,Mostly Cloudy,240,2011-11-18 09:53:00